Temp
-13 -13 -13 -12 -12 -12 -12 -12 -12 -12 -13 -12 -13 -13 -13 -13 -13 -13 -13 -13 -12 -12 -12 -12 -12 -12 -12 -12 -12 -12 -12 -12 -13 -13 -13 -13 -13 -13 -13 -13 -13 -13 -13
-13 -13 -13 -12 -13 -12 -12 -12 -12 -12 -13 -13 -13 -13 -13 -13 -13 -13 -13 -13 -13 -12 -12 -12 -12 -13 -13 -13 -13 -13 -13 -13 -13 -13 -13 -13 -13 -13 -13 -13 -13 -13 -13
-13 -13 -13 -13 -12 -12 -12 -12 -12 -12 -13 -12 -13 -13 -13 -13 -13 -13 -13 -13 -13 -13 -13 -13 -13 -13 -13 -13 -13 -13 -13 -13 -13 -13 -13 -13 -13 -14 -14 -14 -14 -13 -13
-12 -13 -13 -12 -13 -12 -12 -12 -12 -13 -12 -13 -13 -13 -13 -13 -13 -13 -13 -13 -13 -13 -13 -13 -13 -13 -13 -13 -13 -13 -14 -14 -14 -14 -14 -14 -14 -14 -14 -14 -14 -14 -14
-13 -13 -13 -13 -12 -12 -12 -12 -13 -13 -13 -13 -12 -13 -13 -13 -13 -13 -13 -13 -13 -13 -13 -13 -13 -13 -14 -14 -14 -14 -14 -14 -14 -14 -14 -14 -14 -14 -14 -14 -14 -14 -14
-13 -13 -13 -13 -14 -14 -13 -13 -13 -13 -13 -13 -13 -13 -13 -13 -13 -13 -13 -14 -14 -14 -14 -14 -14 -14 -14 -14 -14 -14 -14 -14 -14 -14 -14 -14 -14 -14 -14 -14 -14 -14 -15
-14 -14 -15 -14 -14 -14 -14 -13 -14 -14 -13 -13 -13 -13 -13 -14 -14 -14 -14 -14 -14 -14 -14 -14 -14 -14 -14 -15 -14 -14 -14 -15 -15 -15 -15 -15 -15 -15 -15 -15 -14 -14 -14
-14 -14 -14 -14 -14 -14 -13 -13 -13 -14 -13 -13 -13 -14 -14 -14 -14 -14 -14 -14 -14 -14 -14 -14 -15 -15 -15 -15 -15 -15 -15 -15 -15 -15 -15 -15 -15 -15 -15 -15 -15 -15 -15
-15 -15 -14 -13 -13 -13 -13 -13 -13 -14 -14 -14 -14 -14 -14 -14 -14 -14 -14 -14 -14 -15 -15 -15 -15 -15 -15 -15 -15 -15 -15 -16 -16 -16 -16 -16 -16 -16 -16 -16 -16 -16 -15
-14 -14 -14 -13 -13 -13 -14 -14 -14 -14 -14 -14 -14 -14 -14 -14 -14 -14 -14 -15 -15 -15 -15 -15 -15 -15 -16 -16 -16 -16 -16 -16 -16 -16 -17 -17 -17 -17 -18 -18 -18 -18 -18
-14 -14 -13 -13 -13 -14 -14 -14 -14 -14 -14 -14 -14 -14 -14 -15 -15 -15 -15 -15 -16 -16 -15 -16 -16 -16 -16 -16 -16 -16 -17 -17 -17 -17 -17 -18 -18 -18 -19 -19 -19 -19 -20
-14 -14 -14 -14 -14 -14 -14 -14 -14 -14 -14 -14 -15 -15 -15 -15 -15 -15 -16 -16 -16 -16 -16 -16 -16 -16 -16 -17 -17 -17 -17 -18 -18 -18 -18 -18 -19 -19 -19 -19 -20 -20 -20
-14 -14 -14 -14 -14 -14 -14 -14 -15 -15 -15 -15 -15 -15 -15 -16 -16 -16 -16 -16 -16 -16 -16 -16 -16 -17 -17 -17 -18 -18 -18 -19 -19 -19 -19 -19 -19 -20 -20 -20 -21 -21 -22
-14 -14 -14 -14 -14 -14 -15 -15 -15 -15 -15 -15 -15 -16 -16 -16 -16 -16 -16 -16 -16 -16 -16 -17 -17 -17 -18 -18 -18 -19 -19 -19 -19 -19 -20 -20 -20 -21 -21 -22 -22 -23 -23
-15 -15 -15 -15 -15 -15 -15 -15 -15 -15 -15 -16 -16 -16 -16 -16 -16 -16 -16 -17 -17 -17 -17 -17 -18 -18 -19 -19 -19 -19 -20 -20 -20 -21 -21 -21 -22 -22 -23 -23 -23 -24 -24
-16 -16 -16 -16 -16 -16 -15 -15 -16 -16 -16 -16 -16 -16 -16 -16 -16 -17 -17 -17 -17 -17 -18 -18 -18 -19 -19 -20 -20 -20 -20 -21 -21 -21 -22 -22 -23 -23 -24 -24 -25 -25 -25
-16 -16 -15 -15 -16 -16 -16 -16 -16 -16 -16 -16 -16 -16 -16 -17 -17 -17 -17 -18 -18 -18 -19 -19 -20 -20 -20 -21 -21 -21 -21 -21 -22 -22 -23 -24 -24 -24 -24 -25 -26 -26 -27
-16 -16 -16 -16 -15 -15 -15 -16 -16 -16 -16 -16 -17 -17 -17 -17 -17 -18 -18 -18 -19 -19 -20 -20 -20 -21 -21 -21 -21 -22 -22 -23 -23 -24 -24 -24 -25 -25 -26 -26 -26 -27 -29
-15 -15 -15 -15 -15 -16 -16 -16 -16 -17 -17 -17 -17 -17 -17 -18 -18 -19 -19 -20 -20 -21 -21 -21 -21 -21 -22 -22 -23 -23 -24 -24 -24 -25 -25 -25 -26 -26 -26 -27 -28 -30 -30
-16 -16 -16 -16 -16 -16 -16 -17 -17 -17 -17 -17 -18 -18 -19 -19 -20 -20 -20 -20 -21 -21 -22 -21 -22 -22 -23 -24 -24 -24 -25 -25 -25 -25 -26 -26 -27 -27 -28 -30 -30 -31 -31
-15 -15 -15 -16 -16 -16 -16 -17 -17 -18 -18 -18 -18 -19 -19 -20 -20 -20 -21 -21 -21 -22 -22 -23 -23 -24 -24 -25 -25 -25 -25 -26 -26 -26 -27 -27 -28 -30 -30 -31 -31 -32 -33
-16 -16 -17 -17 -17 -17 -18 -18 -18 -18 -18 -18 -19 -19 -20 -20 -21 -21 -22 -22 -23 -23 -23 -24 -24 -24 -25 -25 -26 -26 -27 -27 -27 -27 -28 -28 -30 -31 -31 -32 -32 -33 -34
-16 -16 -17 -17 -18 -18 -18 -19 -19 -19 -19 -20 -20 -20 -20 -21 -22 -22 -23 -23 -24 -24 -24 -24 -25 -25 -26 -27 -27 -27 -28 -28 -28 -28 -30 -31 -31 -31 -32 -33 -33 -34 -34
-18 -18 -19 -19 -19 -19 -20 -20 -20 -20 -21 -21 -21 -22 -23 -23 -23 -24 -24 -24 -24 -24 -25 -26 -26 -27 -27 -27 -28 -28 -29 -29 -30 -31 -32 -32 -32 -32 -33 -33 -34 -34 -34
-19 -19 -19 -20 -20 -20 -20 -21 -21 -22 -22 -23 -23 -23 -24 -25 -25 -24 -24 -25 -26 -26 -26 -27 -27 -28 -28 -28 -29 -29 -29 -30 -31 -32 -32 -32 -32 -33 -33 -34 -34 -34 -34
-19 -20 -20 -20 -21 -21 -21 -22 -22 -22 -23 -24 -24 -25 -25 -25 -25 -25 -26 -26 -27 -27 -28 -28 -29 -29 -29 -29 -29 -30 -30 -31 -32 -32 -32 -33 -33 -33 -33 -34 -34 -34 -34
Height
5804 5807 5812 5815 5819 5821 5822 5822 5823 5825 5825 5825 5825 5824 5824 5822 5821 5820 5819 5817 5814 5812 5810 5809 5807 5805 5802 5800 5797 5794 5791 5788 5785 5782 5780 5777 5774 5771 5768 5765 5762 5759 5757
5800 5803 5806 5809 5811 5813 5815 5815 5816 5818 5818 5817 5817 5818 5817 5816 5814 5813 5812 5810 5807 5805 5803 5801 5799 5797 5794 5792 5789 5786 5783 5780 5777 5774 5770 5767 5765 5761 5758 5755 5753 5750 5747
5791 5796 5800 5801 5803 5805 5805 5808 5810 5811 5811 5811 5809 5810 5810 5809 5807 5806 5804 5802 5800 5798 5795 5793 5790 5788 5785 5783 5779 5776 5774 5770 5767 5764 5761 5757 5754 5751 5748 5745 5742 5739 5736
5782 5788 5793 5798 5797 5800 5799 5800 5801 5803 5803 5802 5803 5802 5802 5801 5800 5798 5795 5793 5792 5789 5787 5784 5781 5779 5775 5772 5769 5766 5764 5760 5757 5753 5749 5746 5743 5740 5738 5733 5730 5727 5723
5778 5784 5787 5789 5790 5790 5793 5793 5793 5796 5796 5797 5797 5796 5794 5792 5790 5789 5787 5785 5783 5780 5778 5775 5772 5768 5765 5762 5759 5756 5753 5749 5745 5741 5737 5733 5730 5727 5725 5722 5717 5712 5708
5770 5774 5778 5781 5784 5784 5784 5785 5785 5787 5788 5789 5788 5787 5785 5783 5781 5779 5777 5774 5772 5770 5767 5764 5761 5757 5754 5750 5747 5744 5740 5736 5732 5728 5724 5720 5717 5712 5708 5706 5702 5699 5695
5761 5766 5771 5774 5776 5778 5778 5777 5776 5778 5779 5780 5779 5777 5775 5773 5772 5770 5767 5764 5762 5760 5757 5754 5750 5746 5742 5739 5735 5732 5728 5723 5719 5715 5710 5705 5700 5696 5691 5687 5684 5681 5678
5754 5760 5764 5766 5767 5769 5770 5770 5770 5771 5770 5769 5768 5767 5766 5763 5761 5759 5757 5754 5751 5749 5745 5742 5738 5734 5730 5727 5723 5719 5714 5709 5704 5699 5694 5688 5682 5677 5671 5666 5662 5661 5658
5748 5752 5755 5758 5759 5760 5761 5760 5761 5761 5760 5759 5758 5756 5755 5751 5750 5748 5745 5743 5740 5737 5733 5730 5726 5722 5718 5713 5708 5704 5698 5694 5688 5683 5677 5671 5664 5658 5652 5646 5641 5637 5637
5740 5743 5746 5749 5750 5750 5750 5751 5751 5750 5750 5749 5747 5746 5742 5740 5739 5736 5734 5731 5728 5725 5721 5717 5713 5708 5704 5699 5694 5689 5684 5678 5672 5666 5660 5653 5646 5640 5633 5627 5621 5615 5611
5731 5734 5736 5739 5740 5741 5742 5742 5741 5740 5739 5737 5736 5734 5731 5729 5727 5725 5722 5719 5716 5712 5708 5703 5699 5695 5689 5684 5679 5674 5668 5661 5654 5648 5642 5635 5628 5623 5616 5609 5602 5595 5588
5722 5725 5727 5730 5731 5732 5732 5731 5730 5729 5728 5727 5725 5722 5720 5718 5716 5713 5710 5707 5703 5698 5694 5689 5684 5679 5674 5669 5663 5656 5649 5643 5636 5629 5623 5615 5609 5603 5596 5588 5581 5573 5565
5713 5716 5718 5720 5721 5721 5720 5720 5719 5718 5716 5714 5712 5711 5709 5706 5703 5701 5697 5693 5689 5684 5679 5674 5669 5664 5658 5652 5645 5639 5633 5626 5619 5612 5605 5598 5591 5584 5576 5568 5560 5551 5541
5705 5708 5709 5709 5710 5710 5710 5709 5708 5706 5705 5703 5701 5699 5696 5694 5691 5687 5682 5678 5673 5668 5664 5659 5653 5647 5641 5634 5628 5621 5614 5607 5600 5593 5585 5578 5570 5562 5555 5547 5537 5527 5516
5695 5697 5698 5699 5699 5699 5699 5698 5697 5695 5693 5691 5689 5687 5684 5680 5676 5672 5667 5663 5658 5653 5648 5642 5637 5630 5624 5617 5610 5604 5597 5589 5582 5574 5566 5558 5550 5542 5533 5522 5513 5500 5489
5685 5687 5689 5690 5690 5689 5688 5686 5685 5683 5682 5680 5677 5674 5670 5666 5661 5657 5652 5648 5642 5636 5631 5626 5620 5612 5606 5599 5592 5586 5579 5571 5562 5556 5547 5539 5530 5520 5511 5499 5487 5474 5459
5678 5679 5679 5680 5679 5678 5677 5675 5674 5672 5670 5667 5663 5659 5655 5651 5646 5641 5636 5630 5625 5619 5614 5608 5602 5595 5588 5581 5575 5567 5560 5551 5543 5535 5527 5520 5508 5497 5488 5476 5464 5450 5434
5669 5669 5669 5668 5667 5666 5665 5663 5661 5659 5656 5652 5649 5644 5640 5635 5630 5625 5620 5615 5609 5603 5597 5591 5585 5578 5570 5563 5556 5549 5542 5534 5524 5516 5506 5498 5487 5473 5462 5451 5441 5428 5415
5660 5660 5659 5657 5656 5654 5652 5650 5648 5645 5641 5637 5633 5629 5625 5620 5615 5610 5605 5599 5593 5586 5580 5574 5567 5561 5553 5545 5539 5532 5526 5517 5507 5496 5484 5474 5463 5452 5438 5425 5416 5409 5399
5650 5649 5648 5646 5645 5642 5640 5637 5633 5630 5626 5623 5619 5614 5609 5604 5599 5593 5588 5582 5576 5569 5563 5556 5549 5543 5537 5529 5521 5514 5506 5498 5488 5477 5464 5451 5440 5428 5416 5405 5397 5390 5383
5638 5636 5634 5633 5631 5628 5626 5623 5619 5616 5612 5607 5603 5598 5593 5588 5582 5577 5571 5565 5560 5553 5547 5542 5534 5527 5518 5510 5501 5492 5484 5475 5468 5458 5446 5433 5420 5409 5400 5390 5381 5374 5368
5625 5623 5621 5618 5616 5613 5610 5607 5604 5600 5596 5592 5587 5582 5577 5572 5567 5561 5556 5550 5545 5539 5532 5525 5516 5507 5498 5489 5481 5472 5463 5454 5446 5437 5427 5416 5404 5394 5386 5377 5369 5362 5356
5613 5610 5608 5605 5602 5599 5596 5593 5589 5586 5582 5578 5573 5568 5563 5557 5552 5546 5541 5535 5528 5522 5514 5507 5499 5491 5481 5470 5461 5453 5443 5434 5425 5416 5407 5398 5389 5380 5372 5364 5357 5352 5345
5599 5597 5594 5591 5589 5586 5583 5579 5575 5570 5566 5562 5557 5552 5546 5541 5536 5531 5525 5519 5511 5504 5496 5489 5482 5474 5465 5454 5445 5435 5425 5415 5405 5397 5391 5382 5374 5367 5360 5354 5348 5341 5333
5584 5582 5579 5577 5574 5571 5567 5562 5558 5555 5550 5545 5540 5535 5530 5526 5520 5515 5508 5501 5493 5486 5479 5472 5464 5456 5448 5437 5427 5417 5410 5401 5393 5385 5378 5370 5362 5356 5350 5344 5338 5331 5323
5569 5567 5564 5562 5559 5555 5550 5547 5543 5539 5534 5530 5525 5520 5515 5510 5505 5498 5491 5482 5475 5468 5460 5451 5443 5436 5428 5421 5411 5402 5394 5386 5379 5373 5365 5359 5352 5346 5340 5334 5329 5320 5312
Wind_Speed
39 38 40 40 38 34 35 34 33 33 32 31 28 27 27 31 32 30 28 27 27 27 28 30 31 32 33 34 37 38 39 39 39 38 39 39 40 40 39 39 39 39 39
45 43 45 43 40 38 39 40 34 35 37 37 29 27 30 33 33 31 31 31 31 31 32 33 34 35 36 38 40 41 43 43 42 41 42 42 42 41 40 41 42 43 44
50 48 49 52 43 41 35 40 38 43 44 39 31 27 30 33 33 33 33 34 34 35 35 36 37 38 39 40 43 45 46 45 44 45 45 45 44 44 44 45 46 47 49
52 50 53 53 40 37 31 39 40 43 40 27 26 28 32 35 36 36 36 37 37 38 38 39 40 41 42 44 46 48 48 47 47 47 48 48 48 47 47 50 52 53 55
47 48 39 38 42 46 49 40 22 29 30 34 34 36 35 36 38 39 39 39 40 41 41 42 43 45 46 48 49 50 49 50 50 51 52 51 52 53 54 54 57 59 61
47 49 47 43 43 38 43 26 25 22 31 33 38 39 38 39 41 42 42 41 43 44 44 46 47 48 50 51 51 52 52 53 54 55 55 56 58 59 61 62 63 64 65
50 44 35 35 34 32 31 32 25 26 35 39 40 40 40 41 43 45 44 44 45 47 48 50 51 52 52 53 54 55 56 57 58 58 60 62 64 66 68 69 70 70 70
43 39 40 38 37 37 34 34 35 39 39 40 42 42 43 43 46 46 47 47 48 50 52 53 53 54 54 55 57 58 60 60 61 63 65 68 70 72 74 75 74 73 72
40 41 42 42 41 39 37 38 41 42 41 41 43 45 46 46 48 49 49 50 51 53 54 55 55 55 57 58 60 62 62 64 66 68 70 72 74 75 74 74 76 79 77
39 40 42 43 41 41 41 42 44 43 44 46 47 49 48 49 50 51 51 53 54 55 56 56 57 59 60 62 62 64 66 68 70 72 73 74 73 74 75 77 79 81 82
42 41 42 43 43 43 44 46 48 50 50 50 50 51 50 50 52 53 54 55 55 56 57 59 60 62 62 63 66 68 70 71 72 73 72 73 75 75 76 78 79 80 82
40 42 42 43 45 48 50 50 51 52 51 51 51 50 51 52 53 55 55 56 58 59 61 62 63 63 65 67 69 70 71 72 71 72 74 75 76 77 80 81 82 84 86
39 41 43 45 47 49 50 51 51 51 50 49 49 50 52 53 54 55 57 59 61 62 63 64 65 66 68 70 70 71 71 71 73 75 75 77 78 79 81 83 85 87 88
40 42 45 47 49 50 51 51 50 48 48 48 50 52 53 54 56 58 60 61 62 64 65 66 67 69 69 70 70 71 72 73 74 76 78 79 81 83 84 85 86 88 92
40 42 44 45 47 48 47 46 46 46 49 50 51 53 55 57 59 60 62 64 65 66 68 68 69 70 71 71 72 72 72 73 75 77 78 80 82 84 85 86 89 92 95
39 39 39 39 40 41 43 46 48 49 50 52 54 56 58 59 61 63 64 66 67 67 68 68 71 70 70 71 72 73 74 76 78 79 79 82 82 84 86 89 91 94 97
35 36 38 40 42 43 45 47 48 50 52 54 56 58 60 62 63 65 65 66 67 69 70 69 69 70 71 72 73 76 77 79 79 79 80 79 83 86 88 88 92 94 93
35 37 38 40 42 45 47 49 51 53 55 56 58 60 63 64 65 65 66 69 68 67 67 68 69 70 72 74 76 76 76 76 77 79 79 81 84 85 87 90 91 86 76
37 39 41 44 46 48 50 52 54 55 57 59 61 62 64 65 66 67 67 65 66 67 68 69 71 72 74 75 74 74 74 76 78 78 80 83 82 84 86 88 81 71 67
40 43 45 47 49 51 53 55 57 58 59 60 62 63 64 64 63 63 64 66 66 68 69 70 71 71 72 73 72 75 76 76 77 79 81 81 82 82 78 73 68 63 59
45 47 48 51 52 54 56 57 58 58 59 60 61 62 62 63 64 65 67 67 69 68 68 68 69 71 72 74 76 77 76 75 77 77 77 78 77 70 66 63 60 57 52
43 45 46 47 49 50 52 54 56 58 61 62 63 63 64 65 66 65 65 64 63 63 65 67 71 74 75 75 74 75 74 75 75 73 74 72 66 63 60 56 54 49 50
47 48 50 51 52 53 55 57 58 60 62 63 63 64 66 65 63 62 60 59 62 66 69 71 71 72 73 72 72 72 73 73 72 71 67 62 59 56 53 51 47 46 50
47 49 49 50 52 52 53 55 57 59 60 61 61 60 59 58 58 57 59 63 67 67 69 70 70 71 71 69 68 68 69 69 67 61 58 56 53 51 48 46 44 47 53
51 51 50 50 51 52 54 55 57 58 59 58 57 57 55 56 58 61 64 66 66 68 68 70 72 69 65 64 64 64 65 64 58 55 54 51 48 45 45 41 42 48 50
53 53 52 51 52 53 55 56 57 57 57 56 55 56 57 57 61 63 64 66 67 69 71 69 66 63 63 63 63 62 61 55 52 52 49 47 44 43 40 38 44 47 44
Wind_Direction
227 237 228 221 223 229 236 242 255 261 255 257 261 273 287 293 297 302 306 305 305 305 307 308 309 307 307 301 300 297 295 297 299 301 301 300 298 296 293 290 288 287 288
224 229 230 224 230 239 244 250 260 262 256 258 258 270 281 290 296 301 303 301 301 302 304 304 305 305 303 299 296 295 294 295 297 298 298 298 297 295 292 291 290 290 291
224 231 233 231 231 249 257 250 257 265 258 262 260 270 282 289 295 297 297 297 298 300 301 302 302 301 300 295 293 292 293 295 296 297 297 297 294 293 293 292 292 291 291
227 231 237 243 250 244 240 243 256 250 254 259 273 279 284 289 293 294 294 295 297 298 299 299 299 297 296 292 291 292 294 295 296 297 296 294 293 292 291 291 291 291 290
237 243 237 237 238 249 249 241 254 254 256 268 274 281 284 287 289 290 291 293 295 296 297 297 297 295 292 291 292 294 296 295 295 295 294 292 292 292 292 292 291 291 290
231 234 236 240 248 264 256 280 259 255 258 265 271 275 281 284 287 288 291 293 294 295 295 295 294 291 290 292 294 295 294 293 294 293 292 293 293 293 292 291 291 290 290
250 248 251 251 257 253 262 267 268 260 259 266 271 277 281 283 285 287 290 292 293 293 293 291 289 289 292 294 293 293 293 294 294 293 294 294 293 292 292 292 291 291 290
240 245 249 249 249 250 255 257 257 259 264 270 275 276 278 281 284 287 289 290 290 291 289 287 289 291 292 292 293 294 294 294 294 294 294 293 294 294 293 292 292 291 290
242 241 246 247 244 248 253 258 261 265 268 269 273 276 278 282 285 286 287 288 287 286 285 288 290 292 292 293 294 293 293 294 294 294 294 294 294 294 293 293 292 291 289
240 238 239 244 247 250 254 258 261 264 267 271 273 276 280 282 283 285 286 285 284 285 288 290 291 292 293 293 293 293 293 294 294 294 294 294 293 293 293 294 293 293 292
238 237 239 242 246 250 253 256 260 265 268 271 274 277 279 280 282 283 282 282 285 287 288 289 291 291 291 291 292 293 293 294 294 293 293 293 293 293 293 292 292 292 292
236 238 240 242 245 249 253 257 260 264 268 271 273 276 279 280 279 280 283 285 286 287 289 290 290 291 292 293 293 293 293 293 293 292 293 292 293 293 293 293 292 292 293
235 239 242 244 247 250 254 259 263 267 270 274 276 277 276 277 281 283 284 285 287 289 289 289 291 292 292 292 293 293 294 293 294 294 294 294 294 294 293 294 295 297 297
237 239 242 245 249 253 257 262 265 270 274 275 274 276 279 281 282 284 286 287 287 288 289 291 292 292 292 293 294 294 294 295 294 295 295 295 295 295 296 297 298 299 299
238 242 247 250 253 257 262 267 271 272 272 273 276 278 279 282 283 284 285 287 289 291 291 292 292 293 293 294 294 294 294 295 296 296 296 296 296 297 299 299 300 299 297
245 248 251 258 264 267 267 267 268 270 273 275 277 279 280 282 283 285 287 289 290 290 290 291 292 294 294 294 295 295 296 296 296 296 296 297 299 301 301 299 298 298 299
258 260 261 261 262 264 266 268 270 272 274 276 278 279 281 282 284 287 288 288 289 290 293 294 294 294 295 296 296 296 296 296 296 296 298 299 301 300 300 298 301 300 302
255 258 262 264 266 268 269 271 272 273 275 277 279 281 283 285 287 287 288 291 293 293 293 294 295 296 296 296 296 296 297 296 297 299 300 301 301 299 300 301 302 305 303
257 259 261 264 266 267 269 271 274 277 279 280 283 285 286 287 288 290 292 292 293 294 295 295 296 296 297 298 298 297 298 298 299 300 301 301 300 300 303 306 306 303 303
264 266 268 270 273 274 276 277 278 279 280 281 282 283 285 287 289 290 292 292 293 294 294 296 297 299 299 298 298 300 302 301 301 301 301 301 303 305 307 305 304 304 305
267 268 269 271 273 274 275 277 278 279 280 281 283 286 288 289 290 291 291 292 292 296 299 300 300 302 304 303 303 303 301 299 300 301 301 303 305 306 304 304 304 306 305
272 272 272 273 274 275 277 279 281 282 283 285 286 286 286 286 287 288 291 294 298 301 303 306 306 307 306 304 302 301 300 301 302 303 304 306 305 303 303 303 305 302 304
269 270 271 273 274 275 277 279 280 281 282 283 284 285 285 286 289 292 296 298 302 303 303 304 305 305 302 302 303 303 304 304 304 305 306 306 305 304 304 305 303 300 304
273 273 273 273 274 276 278 279 280 281 282 283 284 285 288 291 294 296 299 301 301 301 302 302 303 303 304 304 304 304 304 305 306 305 307 306 305 305 304 304 300 302 306
275 275 276 278 280 282 283 283 283 284 285 286 287 289 291 294 296 297 297 298 299 300 302 302 303 303 303 304 304 305 306 305 303 304 307 306 305 305 307 303 302 306 308
276 277 279 282 284 284 284 285 286 286 285 286 289 292 294 295 295 296 296 297 299 302 304 306 306 305 305 305 306 306 305 304 303 307 307 306 306 308 306 303 306 308 305